Location: C?z?ne?ti
(46.1500°N, 22.5000°E)
Time: 10:11:22
(UTC+00:00)

Daily predictions for brighter satellites

Satellite Brightness Start Highest point End
(mag) Time Altitude Azimuth Time Altitude Azimuth Time Altitude Azimuth
SL-08 R/B 4.1 18:21:08 10° NNE 18:25:26 31° E 18:29:37 10° SSE
NOSS 3-3 (C) 4.4 18:21:40 10° S 18:25:59 28° ESE 18:30:54 10° NE
DELTA 2 R/B (1) 4.2 18:21:36 10° SW 18:26:40 36° SSE 18:31:43 10° ESE
COSMOS 2406 4.5 18:22:43 10° SE 18:26:47 20° E 18:30:52 10° NE
USA 306 2.4 18:25:16 10° WSW 18:28:53 68° NNW 18:31:31 10° NE
Meteor 1-31 Rocket 2.6 18:26:43 10° S 18:30:10 76° WSW 18:33:38 10° NNW
Cosmos 1980 Rocket 2.3 18:27:31 10° NNW 18:33:15 83° ENE 18:38:56 10° SSE
Terra 1.9 18:29:00 10° SSE 18:33:38 64° ENE 18:38:18 10° N
Cosmos 1850 Rocket 4.1 18:30:26 10° NNW 18:35:36 80° WSW 18:40:47 10° SSE
BREEZE-M DEB (TANK) 4.1 18:32:49 10° W 18:35:51 32° SSW 18:43:18 10° SE
MetOp-B 4.2 18:34:05 10° SSE 18:39:24 73° ENE 18:44:46 10° N
Helios 1A Rocket 2.2 18:36:37 10° NNE 18:39:47 65° ESE 18:42:53 10° S
CZ-4 R/B 1.6 18:36:47 10° S 18:40:21 60° W 18:43:58 10° NNW
Cosmos 2333 Rocket 3.7 18:36:15 10° N 18:40:51 24° NE 18:45:26 10° E
CSL-04 Rocket 4.4 18:35:31 10° S 18:40:54 54° W 18:46:14 10° NNW
Sich 1 Rocket 3.7 18:36:34 10° SSW 18:40:54 78° W 18:45:18 10° N
Cosmos 1743 2.1 18:38:58 10° N 18:41:57 58° E 18:44:55 10° SSE
Cosmos 44 Rocket 4.1 18:41:35 10° SW 18:46:36 59° NW 18:51:44 10° NNE
Cosmos 1607 3.9 18:48:09 10° SSW 18:54:17 83° ESE 19:00:34 10° NE
Cosmos 1459 Rocket 4.3 18:49:21 10° SSW 18:55:33 71° W 19:01:42 10° N
Cosmos 1802 Rocket 4.0 18:50:10 10° S 18:56:21 89° E 19:02:31 10° N
Cosmos 1782 2.4 18:53:09 10° S 18:56:38 69° E 19:00:10 10° NNE
CZ-4B R/B 3.4 18:52:54 10° SSE 18:58:34 84° WSW 19:04:13 10° NNW
Cosmos 2360 Rocket 3.9 18:54:35 10° N 18:58:47 21° NE 19:02:58 10° E
Ariane Rocket 4.3 18:57:02 12° ESE 19:00:45 26° ENE 19:04:53 10° N
BREEZE-M DEB (TANK) 1.8 18:58:18 10° WSW 19:02:50 81° NNW 19:05:02 10° ENE
Spot 2 Rocket 3.5 19:01:12 11° SSE 19:05:59 70° ENE 19:11:01 10° N
ATLAS 3B R/B 4.0 19:04:34 10° NW 19:11:29 38° WSW 19:17:59 10° S
Cosmos 2219 Rocket 4.2 19:09:02 10° N 19:12:48 18° NE 19:16:32 10° E
IRS-1A Rocket 4.5 19:08:26 10° SSE 19:14:14 79° WSW 19:20:11 10° NNW
Gbstr 26 Del rocket 4.0 19:09:52 10° WNW 19:14:39 39° SW 19:17:40 16° SSE
ERS-1 Rocket 3.9 19:10:24 10° S 19:15:13 47° W 19:20:04 10° NNW
Cosmos 2151 3.7 19:15:12 10° N 19:19:00 35° ENE 19:21:10 21° SE
Okean O Rocket 1.5 19:15:30 14° SSE 19:19:07 86° ENE 19:23:26 10° NNW
Cosmos 1455 Rocket 4.0 19:17:05 10° SSW 19:21:22 50° WNW 19:25:39 10° N
Cosmos 1892 Rocket 4.4 19:18:08 10° NNW 19:22:17 47° W 19:26:24 10° SSW
MOS 1-B 4.4 19:20:38 13° SSE 19:25:51 88° WSW 19:31:42 10° NNW
Cosmos 2233 Rocket 4.0 19:20:18 10° S 19:26:31 86° W 19:32:43 10° N
Cosmos 1461 2.9 19:23:25 10° S 19:26:54 40° ESE 19:30:23 10° NE
Cosmos 2237 4.3 19:22:33 10° NNW 19:28:19 81° WSW 19:32:37 18° SSE
Cosmos 1992 Rocket 3.9 19:24:18 10° SSW 19:29:30 81° ESE 19:34:44 10° NNE
Cosmos 2322 Rocket 3.3 19:25:08 10° NNW 19:30:15 33° NE 19:33:58 17° ESE
CZ-2C R/B 3.7 19:30:01 18° E 19:30:27 19° ENE 19:32:32 10° NNE
CZ-4B R/B 3.8 19:27:58 21° SE 19:30:49 46° ENE 19:35:26 10° N
Cosmos 2082 Rocket 2.7 19:26:52 10° SW 19:32:32 65° WNW 19:38:14 10° NNE
Cosmos 1544 Rocket 3.5 19:31:34 18° S 19:34:41 61° E 19:38:57 10° NNE
Cosmos 2369 4.0 19:30:18 10° NNW 19:35:57 63° WSW 19:40:18 17° S
Cosmos 1437 Rocket 2.7 19:36:11 28° SSE 19:37:41 49° E 19:41:10 10° NNE
Cosmos 2228 3.8 19:34:33 10° SSW 19:38:32 49° WNW 19:42:32 10° N
Okean-O 3.0 19:35:08 16° S 19:38:36 62° WSW 19:42:58 10° NNW
Cosmos 909 Rocket 4.1 19:32:24 10° SW 19:38:45 83° NW 19:45:16 10° NE
USA 186 2.1 19:38:59 25° SSW 19:40:14 46° W 19:42:55 10° NNW
IRS-1C Rocket 4.3 19:39:14 23° SE 19:42:24 58° ENE 19:47:36 10° N
USA 305 4.3 19:41:25 10° W 19:44:28 21° SW 19:45:56 17° SSW
NOSS 3-3 (A) 4.0 19:39:54 10° SW 19:45:02 69° NW 19:51:14 10° NE
ISS -2.0 19:47:11 10° WNW 19:50:15 32° N 19:53:19 10° ENE
Cosmos 1758 Rocket 3.6 19:48:30 10° NNW 19:52:55 78° W 19:55:24 26° S
Cosmos 1486 Rocket 4.4 19:49:21 10° NNW 19:54:29 51° ENE 19:57:02 28° SE
Cosmos 2278 3.8 19:49:35 10° NNW 19:55:17 65° ENE 19:58:19 28° SE
CZ-4B R/B 2.3 19:54:43 39° S 19:55:51 84° W 19:59:18 10° NNW
USA 290 4.0 20:01:15 19° ENE 20:01:15 19° ENE 20:02:36 10° NE
SL-16 R/B 2.2 19:54:38 10° NNW 20:00:21 88° ENE 20:03:19 30° SSE
Cosmos 1825 Rocket 4.1 20:02:29 10° N 20:06:38 42° ENE 20:07:46 34° ESE
COSMOS 2406 3.5 20:04:46 10° SW 20:10:29 68° WNW 20:16:14 10° NNE
Terra 4.3 20:08:50 10° SW 20:11:35 15° W 20:14:23 10° NW
DELTA 2 R/B (1) 4.0 20:07:14 10° WSW 20:12:27 42° S 20:13:54 35° SSE
Cosmos 1602 Rocket 3.5 20:13:03 10° NNW 20:17:22 76° W 20:18:56 39° S
Cosmos 540 Rocket 4.0 20:18:41 35° ESE 20:19:28 37° ESE 20:24:11 10° NE
Cosmos 2058 Rocket 4.5 20:20:44 22° E 20:20:44 22° E 20:24:01 10° NE
Cosmos 1933 3.9 20:19:19 25° SW 20:21:16 50° WNW 20:24:59 10° N
Cosmos 2333 Rocket 2.3 20:19:58 10° NNW 20:25:39 68° WSW 20:28:05 35° S
NOSS 3-4 (A) 3.8 20:24:03 10° NW 20:30:50 87° NE 20:34:49 32° SE
Cosmos 1833 4.3 20:29:39 39° SSE 20:31:19 52° ESE 20:36:47 10° NE
NOSS 3-4 (C) 3.8 20:24:40 10° NW 20:31:29 86° NE 20:35:28 32° SE
Cosmos 1464 Rocket 3.9 20:28:57 29° S 20:32:21 89° E 20:38:34 10° N
Geosat 4.1 20:28:42 10° NE 20:33:36 53° ESE 20:34:38 45° SSE
Cosmos 1805 3.1 20:31:55 10° NNW 20:35:07 55° W 20:35:11 55° WSW
ARIANE 5 R/B 4.5 20:34:30 17° E 20:35:38 19° ENE 20:38:46 10° NNE
Cosmos 2098 Rocket 3.4 20:35:17 31° SSW 20:37:31 66° W 20:41:49 10° N
Ariane Rocket 3.7 20:37:06 28° SSW 20:39:22 46° W 20:44:15 10° NNW
Cosmos 1076 Rocket 3.3 20:37:49 10° N 20:42:04 72° E 20:42:36 63° SE
Cosmos 2360 Rocket 2.1 20:37:47 10° NNW 20:43:29 83° WSW 20:45:21 45° SSE
USA 234 4.2 20:40:11 10° ENE 20:44:46 27° ESE 20:44:46 27° ESE
Cosmos 1536 3.8 20:43:51 10° N 20:46:54 31° ENE 20:46:54 31° ENE
Cosmos 2333 4.1 20:42:52 10° NNW 20:48:38 89° WSW 20:50:27 46° SSE
Cosmos 1606 Rocket 3.8 20:49:17 42° SW 20:50:31 62° W 20:54:49 10° N
Helios 1A 2.9 20:47:30 10° NNE 20:51:10 60° E 20:51:10 60° E
Helios 1B rocket 3.0 20:52:03 38° ENE 20:52:03 38° ENE 20:55:02 10° N
Okean 1 3.2 20:52:41 64° W 20:52:45 64° W 20:56:20 10° N
Cosmos 1092 Rocket 4.1 20:47:32 10° N 20:53:40 62° ENE 20:55:38 42° SE
Cosmos 1763 Rocket 3.4 20:55:35 44° SSW 20:57:19 88° ESE 21:02:38 10° NNE
Cosmos 2219 Rocket 2.1 20:51:56 10° NNW 20:57:38 82° ENE 20:59:14 49° SE
Cosmos 1726 Rocket 3.5 20:59:17 59° WSW 20:59:47 67° W 21:03:49 10° N
Cosmos 990 Rocket 3.9 21:01:38 10° NNW 21:06:50 85° WSW 21:07:49 60° S
Cosmos 1470 4.3 21:05:09 10° NNE 21:07:06 22° NE 21:07:06 22° NE
RESURS DK-1 3.9 21:05:15 10° N 21:08:34 25° NE 21:09:14 23° ENE
Cosmos 2034 Rocket 4.1 21:07:11 35° SSW 21:10:02 73° W 21:16:25 10° N
BREEZE-M DEB (TANK) 3.8 21:03:36 10° W 21:13:16 80° N 21:18:09 10° E
Cosmos 2322 Rocket 2.8 21:09:03 10° NW 21:14:25 45° WSW 21:15:45 38° SW
Cosmos 1975 4.2 21:14:41 10° NNE 21:17:20 26° ENE 21:17:20 26° ENE
Meteor 2-2 Rocket 4.2 21:23:51 52° SSW 21:25:19 85° WNW 21:31:07 10° N
Meteor 1-26 Rocket 4.3 21:25:04 46° SW 21:26:42 70° WNW 21:32:21 10° N
ISS -2.3 21:24:24 10° WNW 21:27:26 37° N 21:27:26 37° N
Cosmos 841 Rocket 4.1 21:29:05 41° E 21:29:05 41° E 21:33:49 10° NE
Cosmos-2242 3.2 21:30:18 56° W 21:30:26 56° WNW 21:34:30 10° N
Cosmos 2279 Rocket 4.0 21:29:53 52° SSE 21:31:19 68° E 21:37:32 10° NNE
Cosmos 44 3.4 21:26:39 10° NW 21:32:05 85° NE 21:32:52 65° SE
Cosmos 2237 Rocket 3.8 21:27:48 10° N 21:32:34 27° NE 21:35:40 17° E
CZ-2C R/B 3.6 21:29:51 10° NNE 21:34:12 72° E 21:34:12 72° E
Cosmos 1634 Rocket 3.9 21:32:56 49° SSW 21:34:42 83° W 21:40:57 10° N
Cosmos 1707 4.4 21:36:03 23° NNW 21:36:03 23° NNW 21:37:28 10° N
Meteor 1-11 Rocket 4.4 21:32:18 10° N 21:37:39 41° ENE 21:38:54 36° ESE
Cosmos 1354 Rocket 4.5 21:33:51 10° NNW 21:38:51 46° WSW 21:39:24 45° SW
CZ-2C R/B 4.1 21:37:19 23° E 21:39:00 27° ENE 21:43:19 10° N
COSMOS 2428 2.9 21:35:49 10° NNW 21:41:29 62° ENE 21:42:51 48° ESE
SL-16 R/B 4.3 21:40:37 10° WNW 21:43:35 15° W 21:45:09 13° WSW
ACS3 Solar Sail 3.8 21:41:05 10° ENE 21:43:38 13° E 21:45:00 12° E
Cosmos 2227 Rocket 4.3 21:44:30 12° E 21:44:30 12° E 21:46:21 10° ENE
SL-08 ROCKET BODY 4.4 21:43:29 10° N 21:49:41 84° W 21:51:03 57° S
Cosmos 372 Rocket 3.7 21:45:07 10° NNW 21:50:14 80° WSW 21:50:33 76° SSW
Cosmos 1271 Rocket 3.7 21:52:42 38° N 21:52:42 38° N 21:54:57 10° N
Cosmos 2221 2.7 21:54:54 64° NE 21:54:54 64° NE 21:58:32 10° NNE
Meteor 1-27 Rocket 4.5 21:56:56 37° ESE 21:57:37 39° E 22:02:56 10° NNE
Cosmos 2058 Rocket 4.1 21:57:50 34° W 21:58:19 35° WNW 22:02:19 10° N
Aureole 1 Rocket 4.2 21:53:52 10° NNW 21:59:35 56° WSW 22:00:52 48° SW
GP-B 3.6 21:57:37 10° NNE 22:01:32 48° ENE 22:01:32 48° ENE
Cosmos 2266 Rocket 4.0 21:55:56 10° N 22:01:57 65° E 22:03:14 52° SE
Meteor 1-14 Rocket 4.0 21:57:43 10° NNW 22:03:17 79° W 22:03:59 67° SSW
Spot 4 4.0 22:07:43 60° WSW 22:07:44 60° W 22:12:28 10° NNW
Cosmos 1937 Rocket 3.3 22:03:09 10° NNW 22:08:19 80° ENE 22:08:43 74° ESE
ARIANE 5 R/B 3.1 22:11:52 51° W 22:11:52 51° W 22:15:55 10° NNW
ALOS 2 2.9 22:13:10 59° WNW 22:13:10 59° WNW 22:17:11 10° NNW
ARGOS Delta rocket 4.1 22:09:14 10° N 22:14:23 72° WNW 22:15:05 63° SW
Cosmos 2297 Rocket 2.4 22:17:12 53° ESE 22:17:25 54° ESE 22:22:54 10° NE
CZ-2C R/B 3.3 22:14:38 10° NNE 22:20:23 68° ESE 22:21:10 61° SE
Cosmos 2360 Rocket 4.3 22:24:11 10° WNW 22:26:31 13° W 22:27:05 12° WSW
Cosmos 2322 3.8 22:21:25 10° NW 22:26:58 56° WSW 22:27:16 55° WSW
USA 234 3.1 22:22:37 10° NE 22:29:13 89° SSE 22:32:05 37° SW
PSLV R/B 4.1 22:30:33 10° N 22:34:41 49° WNW 22:34:43 49° WNW
Alouette 2 Rocket 4.2 22:31:42 10° N 22:35:25 48° ENE 22:35:30 48° E
SeaSat 1 3.3 22:34:43 34° E 22:36:18 45° NE 22:40:59 10° NNW
Meteor 2-10 Rocket 4.4 22:34:07 10° N 22:39:25 46° ENE 22:40:59 37° ESE
Cosmos 1898 Rocket 4.1 22:35:04 10° NW 22:39:45 41° W 22:39:45 41° W
BlueWalker 3 4.4 22:43:32 13° ENE 22:43:32 13° ENE 22:44:05 10° ENE
Cosmos 2219 Rocket 4.1 22:37:28 10° WNW 22:40:49 16° W 22:40:55 16° W
Cosmos 1766 Rocket 3.7 22:36:32 10° N 22:40:32 64° NE 22:40:32 64° NE
RESURS DK-1 4.0 22:42:21 10° NW 22:44:26 25° WNW 22:44:26 25° WNW
MetOp-A 4.2 22:53:43 51° W 22:53:43 51° W 22:58:15 10° NNW
Cosmos 1814 Rocket 4.1 22:59:05 56° ESE 22:59:23 57° ESE 23:04:31 10° NNE
NOSS 0 Rocket 4.2 22:53:44 10° NW 22:59:38 49° WSW 23:00:06 48° SW
Lacrosse 4 Rocket 1.8 23:01:08 53° NE 23:01:08 53° NE 23:04:24 10° NE
SL-16 R/B 3.5 22:59:01 10° NNW 23:04:17 37° NE 23:08:40 14° ESE
IDEFIX/ARIANE 42P 4.3 23:07:17 10° NE 23:11:12 21° E 23:12:47 18° ESE
Cosmos 1151 Rocket 4.1 23:15:33 33° E 23:15:48 34° E 23:19:41 10° NNE
CZ-4C R/B 3.9 23:13:25 10° NNE 23:15:55 47° N 23:15:55 47° N
Cosmos 2237 Rocket 2.2 23:11:25 10° NNW 23:17:00 59° WSW 23:17:27 57° SW
CZ-2C R/B 3.0 23:18:46 45° WSW 23:18:59 46° W 23:24:01 10° NNW
Cosmos 1980 3.9 23:15:33 10° NW 23:21:00 51° WSW 23:21:16 50° WSW
CENTAUR R/B 4.5 23:21:06 10° ESE 23:22:02 10° E 23:23:01 10° E
Meteor 2-4 Rocket 3.8 23:23:24 50° WSW 23:24:21 57° WNW 23:29:47 10° N
PSLV R/B 4.5 23:20:55 10° NNE 23:24:23 45° E 23:24:23 45° E
In-Cosmos 22 4.3 23:23:38 50° SSE 23:24:49 64° E 23:30:24 10° NNE
COSMOS 2428 4.2 23:20:56 10° NW 23:24:48 22° W 23:24:48 22° W
ACS3 Solar Sail 1.7 23:20:53 10° NNE 23:26:54 80° ESE 23:28:30 51° S
Cosmos 2227 Rocket 2.1 23:26:17 59° S 23:27:22 80° ESE 23:33:04 10° NNE
Okean 3 Rocket 3.5 23:26:03 10° N 23:30:36 84° E 23:30:53 77° SE
Cosmos 158 Rocket 4.1 23:29:48 56° SW 23:30:47 71° WNW 23:36:09 10° NNE
Cosmos 1238 Rocket 4.3 23:37:43 27° WNW 23:37:43 27° WNW 23:41:14 10° NNW
Cosmos 1553 Rocket 4.0 23:35:59 47° S 23:38:00 86° E 23:44:27 10° N
Cosmos 192 4.4 23:33:14 10° NNW 23:38:06 59° WSW 23:38:13 59° WSW
Cosmos 1842 Rocket 3.9 23:38:31 52° W 23:38:36 52° WNW 23:42:55 10° N
Cosmos 2263 Rocket 2.3 23:37:50 50° SSE 23:39:01 63° ESE 23:44:33 10° NNE
BREEZE-M DEB (TANK) 3.4 23:26:49 10° WSW 23:41:05 85° SSE 23:45:15 10° ENE
Cosmos 1805 Rocket 3.4 23:45:56 10° N 23:50:17 82° E 23:50:46 69° SSE
SL-08 R/B 4.4 23:46:05 10° NNW 23:52:24 75° W 23:54:33 43° S
Iridium 4 Rocket 4.2 23:51:28 40° WSW 23:52:42 46° W 23:58:17 10° N
Sich 1 3.3 23:48:55 10° NNW 23:52:43 49° W 23:52:43 49° W
Cosmos 1743 Rocket 4.0 23:50:45 10° N 23:55:00 55° ENE 23:56:11 40° SE
